This demonstration page uses our WeatherBlox Daily Observations layout. Learn more.

36.17497, -115.13722

Hourly Observations for January 25, 2020

Temp ( °F °C ) Dew Point ( °F °C ) Humidity (%) Winds ( mph kmh ) Pressure ( in mb ) Visibility ( mi km ) Precip ( " mm )
12:53 am 00:53 Clear 48 8.9 30 -1.1 50 50 W 5 7 30.1 1019 10 16.0934 0 0
1:53 am 01:53 Clear 48 8.9 28 -2.2 46 46 WNW 5 7 30.1 1019 10 16.0934 0 0
2:53 am 02:53 Clear 45 7.2 28 -2.2 52 52 Calm 30.11 1020 10 16.0934 0 0
3:53 am 03:53 Clear 46 7.8 28 -2.2 50 50 W 3 6 30.11 1020 10 16.0934 0 0
4:53 am 04:53 Clear 44 6.7 29 -1.7 55 55 W 5 7 30.12 1020 10 16.0934 0 0
5:53 am 05:53 Clear 47 8.3 27 -2.8 46 46 NW 6 9 30.14 1021 10 16.0934 0 0
6:53 am 06:53 Sunny 47 8.3 26 -3.3 44 44 N 3 6 30.17 1022 10 16.0934 0 0
7:53 am 07:53 Sunny 49 9.4 27 -2.8 43 43 WNW 7 11 30.17 1022 10 16.0934 0 0
8:53 am 08:53 Sunny 53 11.7 28 -2.2 38 38 NW 5 7 30.19 1022 10 16.0934 0 0
9:53 am 09:53 Sunny 57 13.9 29 -1.7 34 34 S 3 6 30.2 1023 10 16.0934 0 0
10:53 am 10:53 Sunny 60 15.6 30 -1.1 32 32 SSE 6 9 30.18 1022 10 16.0934 0 0
11:53 am 11:53 Sunny 62 16.7 30 -1.1 30 30 ESE 7 11 30.15 1021 10 16.0934 0 0
12:53 pm 12:53 Sunny 64 17.8 30 -1.1 28 28 E 7 11 30.14 1021 10 16.0934 0 0
1:53 pm 13:53 Sunny 65 18.3 29 -1.7 26 26 ESE 5 7 30.13 1020 10 16.0934 0 0
2:53 pm 14:53 Sunny 66 18.9 29 -1.7 25 25 Calm 30.12 1020 10 16.0934 0 0
3:53 pm 15:53 Sunny 66 18.9 28 -2.2 24 24 Calm 30.11 1020 10 16.0934 0 0
4:53 pm 16:53 Sunny 63 17.2 28 -2.2 27 27 E 3 6 30.11 1020 10 16.0934 0 0
5:53 pm 17:53 Clear 60 15.6 28 -2.2 30 30 Calm 30.12 1020 10 16.0934 0 0
6:53 pm 18:53 Clear 56 13.3 30 -1.1 37 37 WNW 5 7 30.15 1021 10 16.0934 0 0
7:53 pm 19:53 Clear 55 12.8 32 0 42 42 WNW 7 11 30.15 1021 10 16.0934 0 0
8:53 pm 20:53 Clear 53 11.7 32 0 45 45 W 7 11 30.15 1021 10 16.0934 0 0
9:53 pm 21:53 Clear 51 10.6 31 -0.6 46 46 NNW 5 7 30.16 1021 10 16.0934 0 0
10:53 pm 22:53 Clear 50 10 30 -1.1 46 46 WNW 7 11 30.16 1022 10 16.0934 0 0
11:53 pm 23:53 Clear 49 9.4 31 -0.6 50 50 WNW 5 7 30.16 1021 10 16.0934 0 0

Powered by AerisWeather